STARLINK-3899, 52457

Orbit data source: Space-Track

STARLINK-3899, 52457 is a payload satellite owned by SpaceX/Seattle (US) in LEO that was launched on Fri, 06 May 2022 UTC via an FALCON 9 launch vehicle from the Air Force Eastern Test Range (AFETR). Payload-class satellites include a variety of spacecraft equipped with specific instruments for various scientific and technological missions. These include communications satellites like Starlink; space stations such as the ISS; scientific satellites like the Hubble; Earth observation satellites from companies like Planet Labs, Umbra, and HawkEye 360; GPS; miniature CubeSats for education and research; and military/defense satellites.

Loading next visibility...
Identifier
52457, 2022-049G
Orbit
LEO
Country
Flag of USUS
Related business
Manufacturer
SpaceX/Seattle
Mission
Operational Commercial Communications
Bus & Motor
STARLINK, Unknown motor
Mass
297 kg wet, ~220 kg dry
Launch date (UTC)
2022-05-06 (4 years ago)
Launch vehicle
FALCON 9
Launch site
Air Force Eastern Test Range (AFETR)
Object type
Payload
Rocket body
Debris
Shape & HBR
Box + 1 Pan, 10.1 m
Radar Cross Section
13.562 m², Large (>1 m²)

Expand to show TLE details & history
Last TLE update: 10 hours ago

TLE from 10 hours ago
0 STARLINK-3899
1 52457U 22049G   26228.66667824  .00013456  00000-0  79513-3 0  9992
2 52457  53.1591  70.4620 0001445  79.0443 312.1972 15.11786746  5814
Epoch: 2026-08-16T16:00Z
TLE epoch observation values (Epoch: 2026-08-16T16:00:00.999Z)
Latitude
24.58128°
Longitude
-114.67424°
Altitude
531.009 km
Speed
7.601 km/s
True Right ascension
06h 01m 33s
True Declination
24° 26' 50"
Sunlit
Object was in daylight at epoch
Visualization orbit readout
Latitude
Unknown
Longitude
Unknown
Altitude
Unknown
Speed
Unknown
Apparent Right ascension
Unknown
Apparent Declination
Unknown
Sunlit
N/A
Visualization observer readout
Local Sidereal Time
16:27:47
Azimuth
Unknown
Elevation
Unknown
Doppler factor
Unknown
Orbital elements
Apogee altitude
532.004 km
Perigee altitude
530.007 km
Semi-major axis
6,909.143 km
Eccentricity
0.00014
Inclination
53.1591°
RAAN
70.462°
Arg. of periapsis
79.0443°
True anomaly
312.18493°
Mean anomaly
312.1972°
Eccentric anomaly
312.19107°
Mean motion
3.77926 °/min
Orbital period
95.26 mins
BSTAR
0.00079513
Loading maneuver chart data...
Computing Atmospheric mass density...
Loading historical data...
Loading historical data...
Loading historical data...
Loading historical data...
Loading historical data...
Loading historical data...
Loading historical data...

Documentation

Showing up to 5 results
|